ATLAS CENTAUR 2 1 00694U 63047A 26106.72060241 .00002132 00000+0 25123-3 0 9999 2 00694 30.3540 343.0800 0546719 55.5070 309.5942 14.12247373137005 THOR AGENA D R/B 1 00733U 64002A 26106.47871194 .00000096 00000+0 51615-4 0 9997 2 00733 99.1199 121.8735 0033514 147.0462 213.2819 14.34039461243718 SL-3 R/B 1 00877U 64053B 26106.67249442 .00000077 00000+0 39275-4 0 9996 2 00877 65.0769 219.8736 0080920 280.3103 78.8882 14.61394728272343 SL-8 R/B 1 02802U 67045B 26106.49740294 .00000199 00000+0 62833-4 0 9992 2 02802 74.0095 277.4761 0065170 275.6262 83.7466 14.45650543 94488 SL-8 R/B 1 03230U 68040B 26106.64018131 .00001967 00000+0 14649-3 0 9994 2 03230 74.0298 236.1270 0023620 44.3252 315.9822 15.03517076 95711 OAO 2 1 03597U 68110A 26106.51900138 .00000111 00000+0 34959-4 0 9998 2 03597 34.9939 54.0045 0005263 147.0442 213.0577 14.47327926 24588 ISIS 1 1 03669U 69009A 26106.59691675 .00000089 00000+0 55327-4 0 9993 2 03669 88.4466 151.1658 1707397 12.6822 351.2077 11.30422973352810 SERT 2 1 04327U 70009A 26106.57065294 .00000011 00000+0 72006-4 0 9995 2 04327 99.2807 47.6019 0005786 71.0865 102.4265 13.58734476785034 SL-3 R/B 1 05118U 71028B 26106.68771256 .00026935 00000+0 27749-3 0 9996 2 05118 81.2379 4.9839 0016442 140.3514 219.8947 15.64498343994600 ASTEX 1 1 05560U 71089A 26106.41232272 .00000260 00000+0 66144-4 0 9991 2 05560 92.7063 163.9459 0013966 324.2100 35.8169 14.50806264867772 SL-8 R/B 1 05730U 71119B 26106.70604002 .00005321 00000+0 27856-3 0 9999 2 05730 73.8833 104.6184 0545588 63.1987 302.3892 14.38507683660950 OAO 3 (COPERNICUS) 1 06153U 72065A 26106.64193005 .00000161 00000+0 37333-4 0 9998 2 06153 35.0055 81.0768 0006079 113.9543 52.5808 14.60026357851740 ATLAS CENTAUR R/B 1 06155U 72065B 26106.05627032 .00000664 00000+0 93469-4 0 9997 2 06155 35.0013 86.7486 0033862 323.7629 36.0779 14.77789793846792 SL-8 R/B 1 08459U 75112B 26106.55169683 .00000066 00000+0 30426-4 0 9990 2 08459 74.0600 309.2647 0015080 27.9888 332.2074 14.38223416637317 SL-3 R/B 1 10114U 77057B 26106.64680552 .00007535 00000+0 15339-3 0 9997 2 10114 97.5808 280.2809 0008087 140.1080 220.0765 15.46545150674197 SEASAT 1 1 10967U 78064A 26106.19455130 .00000143 00000+0 78349-4 0 9993 2 10967 108.0072 204.1897 0002789 266.2920 93.7907 14.46192682511934 SL-14 R/B 1 11267U 79011B 26106.60844832 .00000352 00000+0 32202-4 0 9997 2 11267 82.5240 60.5810 0014517 293.4105 66.5588 14.91958529534432 SL-8 R/B 1 11574U 79089B 26106.47671771 .00000137 00000+0 49324-4 0 9992 2 11574 74.0713 21.0943 0016019 187.4949 172.5971 14.42375271441557 SL-14 R/B 1 11672U 80005B 26106.71358051 .00000356 00000+0 33357-4 0 9993 2 11672 82.5113 271.1544 0016672 41.0842 319.1629 14.90973970482154 SL-8 R/B 1 12139U 81003B 26106.66162970 .00009410 00000+0 23333-3 0 9990 2 12139 82.9370 254.8636 0257390 46.7025 315.5358 15.12600150320412 SL-3 R/B 1 12465U 81046B 26106.66936858 .00007745 00000+0 17449-3 0 9993 2 12465 81.2303 244.0973 0018147 245.8710 114.0636 15.42924320444289 SL-3 R/B 1 12904U 81103B 26106.65042949 .00002625 00000+0 11429-3 0 9997 2 12904 81.1595 168.8963 0013807 154.6823 205.5088 15.21794907979004 SL-3 R/B 1 13068U 82013B 26106.70966117 .00002482 00000+0 10573-3 0 9998 2 13068 81.1712 116.1921 0023230 54.0338 306.3044 15.22336288410133 SL-3 R/B 1 13154U 82039B 26106.68847727 .00000956 00000+0 56416-4 0 9995 2 13154 81.1516 172.1358 0027961 195.8245 164.2110 15.10279239387376 SL-3 R/B 1 13403U 82079B 26106.65627745 .00003030 00000+0 11847-3 0 9993 2 13403 81.1453 148.2369 0024903 40.4256 319.8822 15.25250273383488 SL-14 R/B 1 13553U 82092B 26106.48863823 .00000266 00000+0 26994-4 0 9992 2 13553 82.5646 106.0321 0020535 171.2918 353.6185 14.86699335334541 SL-3 R/B 1 13819U 83010B 26106.66450961 .00007893 00000+0 15225-3 0 9990 2 13819 81.1013 315.6434 0015005 275.2633 84.6900 15.47537450363812 SL-3 R/B 1 14208U 83075B 26106.66145933 .00006742 00000+0 17364-3 0 9992 2 14208 97.6128 112.7039 0023254 94.0196 266.3708 15.39298574335992 COSMOS 1536 1 14699U 84013A 26106.60281247 .00003815 00000+0 15408-3 0 9997 2 14699 82.5435 70.1378 0015489 142.5523 217.6796 15.24345804278396 SL-14 R/B 1 14820U 84027B 26106.53629155 .00000266 00000+0 27624-4 0 9995 2 14820 82.5441 209.5211 0017364 203.6451 156.3969 14.86016365253259 SL-8 R/B 1 15483U 85006B 26106.49920832 .00000120 00000+0 48507-4 0 9992 2 15483 74.0463 191.5764 0017212 97.1066 273.9277 14.37808024159461 SL-12 R/B(2) 1 15772U 85042D 26106.49148075 .00000049 00000+0 43352-4 0 9997 2 15772 71.1105 7.8648 0033133 65.4156 107.1999 14.21993166119764 SL-14 R/B 1 15945U 85069B 26106.17292179 .00000259 00000+0 26409-4 0 9995 2 15945 82.5290 349.6967 0020272 69.8909 290.4487 14.86471441178404 SL-16 R/B 1 16182U 85097B 26106.64494056 .00000165 00000+0 10659-3 0 9995 2 16182 71.0032 60.6425 0008552 213.3013 319.1399 14.16606259 92601 SL-14 R/B 1 16496U 86006B 26106.61136373 .00000506 00000+0 50664-4 0 9996 2 16496 82.5282 224.0452 0077358 146.0945 214.5252 14.86880471154843 COSMOS 1743 1 16719U 86034A 26106.22627644 .00029880 00000+0 34277-3 0 9995 2 16719 82.5316 34.3377 0007061 125.2745 234.9174 15.61886544186102 SL-14 R/B 1 16792U 86046B 26106.52567933 .00000272 00000+0 28440-4 0 9996 2 16792 82.4836 44.4292 0024671 102.0947 258.3035 14.85627870132028 SL-14 R/B 1 16882U 86055B 26106.46307075 .00000278 00000+0 29157-4 0 9990 2 16882 82.5175 91.1569 0018202 202.7163 274.8047 14.85676562124975 AJISAI (EGS) 1 16908U 86061A 26106.70836623 -.00000084 00000+0 95956-4 0 9995 2 16908 50.0113 336.4431 0011398 24.6861 79.1250 12.44515804472730 SL-14 R/B 1 17567U 87024B 26106.61264490 .00000278 00000+0 28736-4 0 9990 2 17567 82.5285 57.1141 0019394 131.7796 228.5081 14.86168858 93763 COSMOS 1833 1 17589U 87027A 26106.66215122 -.00000310 00000+0 -13978-3 0 9990 2 17589 70.9161 246.1994 0022557 156.4408 203.7751 14.13037726 15689 SL-16 R/B 1 17590U 87027B 26106.52551666 -.00000188 00000+0 -69244-4 0 9994 2 17590 71.0033 196.7639 0003129 45.3879 314.7500 14.17168780 20702 SL-14 R/B 1 17912U 87038B 26106.69439933 .00000266 00000+0 27943-4 0 9999 2 17912 82.4989 260.9934 0020200 42.5207 317.7569 14.85404382 84873 COSMOS 1844 1 17973U 87041A 26106.30309015 -.00000151 00000+0 -52922-4 0 9995 2 17973 70.8999 314.8415 0032443 322.5201 37.3659 14.14564565 8909 SL-14 R/B 1 18153U 87055B 26106.52988369 .00000251 00000+0 26117-4 0 9996 2 18153 82.4975 313.3655 0019207 246.9298 112.9893 14.85663539 75555 COSMOS 1867 1 18187U 87060A 26106.65545797 -.00000067 00000+0 12349-4 0 9995 2 18187 65.0108 200.3795 0015200 280.6542 79.2830 14.31508747 25374 SL-14 R/B 1 18749U 88001B 26106.52785470 .00000241 00000+0 24979-4 0 9990 2 18749 82.5139 159.7819 0019551 111.7228 248.6072 14.85565448 47642 COSMOS 1933 1 18958U 88020A 26106.68879813 .00002450 00000+0 11783-3 0 9997 2 18958 82.5154 213.3089 0005357 76.4452 283.7378 15.18338288 55995 SL-3 R/B 1 19046U 88032B 26106.64846029 .00002956 00000+0 13793-3 0 9992 2 19046 97.5230 89.7893 0027673 100.9927 259.4423 15.20314809 57874 SL-16 R/B 1 19120U 88039B 26106.39590405 -.00000060 00000+0 -56529-5 0 9990 2 19120 71.0166 348.8199 0024054 280.9274 78.9145 14.19622789963736 COSMOS 1953 1 19210U 88050A 26106.52213933 .00004736 00000+0 16631-3 0 9996 2 19210 82.5046 120.1730 0010537 1.5136 358.6133 15.29097079 43562 SL-8 R/B 1 19257U 88053B 26106.56918939 .00000088 00000+0 37120-4 0 9995 2 19257 74.0487 42.6389 0020956 216.2941 318.7140 14.38938463982041 COSMOS 1975 1 19573U 88093A 26106.63361197 .00003255 00000+0 11570-3 0 9995 2 19573 82.5174 79.5696 0012732 45.1407 315.0865 15.28558672 25208 SL-14 R/B 1 19574U 88093B 26106.70971081 .00000237 00000+0 24489-4 0 9994 2 19574 82.5343 6.3627 0019079 272.7658 117.2200 14.85698194 6666 SL-16 R/B 1 19650U 88102B 26106.62387366 -.00000174 00000+0 -63851-4 0 9996 2 19650 70.9992 71.6756 0016106 307.1971 52.7681 14.16159790932267 INTERCOSMOS 24 1 20261U 89080A 26106.61353492 .00000252 00000+0 70961-4 0 9999 2 20261 82.6027 79.7027 1187315 204.7388 149.2028 12.59597404671576 SL-14 R/B 1 20262U 89080C 26106.48300483 .00000224 00000+0 57561-4 0 9997 2 20262 82.5924 148.9341 1230973 98.4093 275.8127 12.50524856664873 DELTA 1 R/B 1 20323U 89089B 26106.55695522 .00000157 00000+0 47673-4 0 9991 2 20323 97.0673 307.9638 0069152 4.1803 355.9958 14.50692797901227 ARIANE 40 R/B 1 20443U 90005H 26106.40788206 .00000130 00000+0 54719-4 0 9990 2 20443 98.3011 165.9309 0011395 92.3509 267.8985 14.39894848898230 DELTA 2 R/B(1) 1 20453U 90008B 26106.55204640 .00039706 00000+0 39416-3 0 9992 2 20453 35.6025 285.4071 0076162 254.8204 104.4100 15.60992044932049 COSMOS 2058 1 20465U 90010A 26106.44906737 .00001528 00000+0 88067-4 0 9990 2 20465 82.4724 10.2269 0009010 195.8561 164.2388 15.11658468947941 SL-14 R/B 1 20466U 90010B 26106.59147687 .00000274 00000+0 30220-4 0 9993 2 20466 82.5028 231.7816 0020057 170.8022 189.3565 14.83605874934107 SL-14 R/B 1 20511U 90018B 26106.44308245 .00000223 00000+0 25015-4 0 9995 2 20511 82.5241 187.8137 0015406 332.3743 27.6651 14.82180011928179 HST 1 20580U 90037B 26106.38873999 .00003848 00000+0 12093-3 0 9995 2 20580 28.4727 142.7109 0002147 172.9460 187.1166 15.30058613779098 SL-16 R/B 1 20625U 90046B 26106.58793757 -.00000271 00000+0 -11494-3 0 9993 2 20625 70.9993 218.3163 0016457 250.1285 109.8065 14.15016363853751 COSMOS 2084 1 20663U 90055A 26106.57537259 .00001304 00000+0 10316-3 0 9995 2 20663 62.7891 206.3378 0011079 204.6063 155.4510 15.05870785942024 SL-6 R/B(2) 1 20666U 90055D 26106.47734200 .00000969 00000+0 84321-4 0 9996 2 20666 62.7804 125.3294 0030962 355.1426 4.9368 15.03763115943874 SL-8 R/B 1 20775U 90078B 26106.39338730 .00009424 00000+0 27770-3 0 9990 2 20775 82.9057 217.3722 0356649 246.6353 109.6982 14.90087132814913 SL-8 R/B 1 21088U 91006B 26106.55053950 .00000142 00000+0 12795-3 0 9995 2 21088 82.9412 141.8923 0020997 290.3572 180.2132 13.77501546769288 OKEAN-3 1 21397U 91039A 26106.51211491 .00001174 00000+0 80567-4 0 9995 2 21397 82.5137 300.1864 0013899 195.6783 164.4015 15.05016867870725 COSMOS 2151 1 21422U 91042A 26106.70230547 .00001244 00000+0 97182-4 0 9991 2 21422 82.4979 47.0007 0010766 295.1947 64.8160 15.00269065868895 SL-14 R/B 1 21423U 91042B 26106.50419934 .00000229 00000+0 25931-4 0 9994 2 21423 82.4956 184.7343 0018473 115.0585 245.2550 14.81865545858670 ERS-1 1 21574U 91050A 26106.51091623 .00000170 00000+0 68896-4 0 9994 2 21574 98.7847 125.6917 0033151 90.2715 270.2271 14.39477916821173 ARIANE 40 R/B 1 21610U 91050F 26106.12521251 .00000138 00000+0 53776-4 0 9992 2 21610 98.1939 156.9425 0002345 344.4644 15.6475 14.42920352824392 INTERCOSMOS 25 1 21819U 91086A 26106.54414927 .00000837 00000+0 15909-3 0 9990 2 21819 82.5991 287.1151 1485888 35.3579 333.7429 12.12116763501272 SL-8 R/B 1 21876U 92008B 26106.66996542 .00000005 00000+0 -10373-4 0 9998 2 21876 82.9264 239.5217 0035197 30.6728 340.3263 13.75970147714644 SL-8 R/B 1 21938U 92020B 26106.52688828 -.00000038 00000+0 -54721-4 0 9993 2 21938 82.9275 125.6616 0028786 189.3816 282.6567 13.75549616706334 USA 81 1 21949U 92023A 26106.52152333 .00000117 00000+0 35859-4 0 9992 2 21949 85.0035 109.6026 0001221 86.6428 273.4904 14.32380119100206 COSMOS 2219 1 22219U 92076A 26106.50737225 .00000174 00000+0 11601-3 0 9999 2 22219 71.0586 299.0136 0017290 147.8417 212.3764 14.14089533723720 SL-16 R/B 1 22220U 92076B 26106.48842987 .00000107 00000+0 77272-4 0 9993 2 22220 70.9979 108.7522 0011569 28.1166 140.5089 14.16866723727188 COSMOS 2221 1 22236U 92080A 26106.62183133 .00001158 00000+0 99782-4 0 9999 2 22236 82.5031 242.7356 0015517 67.9440 292.3428 14.96362795786467 SL-16 R/B 1 22285U 92093B 26106.54791977 -.00000056 00000+0 -45243-5 0 9991 2 22285 71.0199 284.7907 0006389 255.3035 104.7380 14.15453499718514 COSMOS 2228 1 22286U 92094A 26106.67951015 .00001272 00000+0 10687-3 0 9999 2 22286 82.5205 200.9404 0018319 169.7155 190.4447 14.97383412781747 SL-16 R/B 1 22566U 93016B 26106.52147296 -.00000062 00000+0 -74240-5 0 9992 2 22566 71.0062 135.7270 0012728 266.7625 93.2042 14.15313951707522 COSMOS 2242 1 22626U 93024A 26106.41092245 .00001210 00000+0 10342-3 0 9994 2 22626 82.5191 230.6285 0016510 173.7088 186.4345 14.96716082786038 SL-16 R/B 1 22803U 93059B 26106.52010630 -.00000112 00000+0 -31820-4 0 9996 2 22803 70.9893 291.3496 0016277 159.7718 200.4054 14.17239313684892 ARIANE 40 R/B 1 22830U 93061H 26106.47663977 .00000118 00000+0 59067-4 0 9998 2 22830 98.4854 174.6059 0011113 166.3857 193.7629 14.32880770699517 COSMOS 2278 1 23087U 94023A 26106.71777090 .00000342 00000+0 20325-3 0 9994 2 23087 71.0513 95.5342 0009887 319.6874 40.3515 14.14381030650180 SL-16 R/B 1 23088U 94023B 26106.39359036 -.00000251 00000+0 -10519-3 0 9990 2 23088 71.0020 351.7074 0005553 252.8667 107.1847 14.15018378651428 SL-16 R/B 1 23343U 94074B 26106.54498279 .00000238 00000+0 38478-4 0 9998 2 23343 97.7053 135.8198 0008114 97.0837 23.9883 14.79449499692843 SL-16 R/B 1 23405U 94077B 26106.71384441 .00000196 00000+0 12441-3 0 9998 2 23405 70.9812 272.4910 0000995 156.2249 203.8920 14.15567715621612 ARIANE 40+ R/B 1 23561U 95021B 26106.47330654 .00000157 00000+0 63810-4 0 9995 2 23561 98.4439 177.4321 0007302 38.4649 332.0836 14.39798839624689 SL-16 R/B 1 23705U 95058B 26106.72268670 .00000227 00000+0 14047-3 0 9996 2 23705 71.0195 100.4049 0010654 55.7813 304.4318 14.15503731573238 SL-16 R/B 1 24298U 96051B 26106.70109663 .00000035 00000+0 45702-4 0 9992 2 24298 70.7569 94.7826 0012636 83.2420 277.0137 14.12425460527015 ORBVIEW 2 (SEASTAR) 1 24883U 97037A 26106.47484700 .00000148 00000+0 67666-4 0 9997 2 24883 98.8629 271.8006 0001419 334.8141 25.2974 14.35520777513898 SL-16 R/B 1 25400U 98043G 26106.61968740 .00000010 00000+0 23019-4 0 9990 2 25400 98.8316 60.2672 0008748 264.2912 95.7270 14.26058317444395 SL-16 R/B 1 25407U 98045B 26106.71492007 -.00000014 00000+0 17202-4 0 9990 2 25407 71.0092 101.6072 0008979 314.5216 45.5173 14.16199089432485 ISS (ZARYA) 1 25544U 98067A 26106.19926477 .00005372 00000+0 10584-3 0 9997 2 25544 51.6325 246.8823 0006616 318.5233 41.5253 15.48930915562144 CZ-4B R/B 1 25732U 99025C 26106.56186367 .00000018 00000+0 29405-4 0 9993 2 25732 98.6554 149.9327 0036203 234.8951 247.5833 14.18272711393538 OKEAN-O 1 25860U 99039A 26106.43589148 .00000335 00000+0 50757-4 0 9996 2 25860 97.9370 165.9290 0001254 115.4497 244.6845 14.80393131439971 SL-16 R/B 1 25861U 99039B 26106.44787907 .00000278 00000+0 42042-4 0 9995 2 25861 97.9893 165.4730 0015879 131.6272 228.6304 14.81781780442456 DELTA 2 R/B 1 25876U 99041E 26106.38463906 .00000240 00000+0 78999-4 0 9996 2 25876 51.7597 150.6929 0502539 99.5858 266.2205 14.11917990368354 HELIOS 1B 1 25977U 99064A 26106.44417245 .00000810 00000+0 95021-4 0 9993 2 25977 98.1658 9.7915 0000764 39.4823 320.6448 14.87838892690871 TERRA 1 25994U 99068A 26106.67455338 .00000228 00000+0 55515-4 0 9993 2 25994 97.9518 158.6431 0003554 75.0470 82.3905 14.61053770400621 SL-16 R/B 1 26070U 00006B 26106.45762619 -.00000204 00000+0 -79211-4 0 9997 2 26070 71.0044 18.4225 0014734 129.2755 230.9677 14.15828800353906 TITAN 4B R/B 1 26474U 00047B 26106.65798398 .00001617 00000+0 10615-3 0 9994 2 26474 67.9868 293.7178 0041463 351.5954 8.4495 15.09870949398648 ENVISAT 1 27386U 02009A 26106.66707390 .00000036 00000+0 25483-4 0 9994 2 27386 98.3787 59.3753 0001140 84.3757 88.9980 14.39049691264631 IDEFIX & ARIANE 42P R/B 1 27422U 02021B 26106.53195398 .00000130 00000+0 66018-4 0 9998 2 27422 98.5911 44.6963 0012995 77.0372 283.2262 14.31051195249433 AQUA 1 27424U 02022A 26106.68935522 .00000486 00000+0 10657-3 0 9999 2 27424 98.4234 74.7653 0001824 105.5984 67.1742 14.62060511274286 CZ-4B R/B 1 27432U 02024C 26106.40977632 .00000021 00000+0 34147-4 0 9994 2 27432 98.8762 159.6124 0049031 275.9598 94.0903 14.14554253234570 MIDORI II (ADEOS-II) 1 27597U 02056A 26106.60587751 .00000163 00000+0 81764-4 0 9996 2 27597 98.7831 65.3616 0000335 143.3690 216.7514 14.29313519215712 H-2A R/B 1 27601U 02056E 26106.62280580 .00000183 00000+0 78374-4 0 9999 2 27601 98.3265 65.5599 0071204 49.2578 122.9440 14.33787605219546 CZ-4B R/B 1 28059U 03049C 26106.48050769 .00000232 00000+0 64561-4 0 9996 2 28059 98.6899 102.8766 0049221 115.7874 244.8412 14.55053534192097 CZ-2C R/B 1 28222U 04012C 26106.60732786 .00043560 00000+0 37246-3 0 9999 2 28222 97.7153 175.6168 0013993 166.9211 193.2416 15.69232736210211 SL-16 R/B 1 28353U 04021B 26106.50035081 -.00000003 00000+0 23378-4 0 9995 2 28353 71.0003 153.1473 0006382 320.6502 39.4156 14.14605805128187 CZ-4B R/B 1 28415U 04035C 26106.52990462 .00004397 00000+0 15326-3 0 9996 2 28415 97.3437 140.3232 0031395 190.9961 169.0597 15.29701004185691 CZ-2C R/B 1 28480U 04046B 26106.69967596 .00000097 00000+0 50866-4 0 9992 2 28480 98.1973 19.3145 0140322 42.8596 318.3422 14.27007148113923 ARIANE 5 R/B 1 28499U 04049H 26106.49291027 .00000525 00000+0 64631-4 0 9993 2 28499 98.2679 276.3796 0083119 227.9706 131.4413 14.85338196151406 CZ-2D R/B 1 28738U 05024B 26106.50799911 .00029425 00000+0 31712-3 0 9993 2 28738 97.3546 123.1371 0003318 200.1246 159.9882 15.63644779145680 ALOS (DAICHI) 1 28931U 06002A 26106.62442194 .00000653 00000+0 11739-3 0 9995 2 28931 98.1278 62.4083 0001611 112.1914 247.9462 14.69921366 79053 H-2A R/B 1 28932U 06002B 26106.67233212 .00005309 00000+0 26141-3 0 9996 2 28932 98.2484 257.0047 0052657 112.2484 248.4343 15.17253083100197 RESURS-DK 1 1 29228U 06021A 26106.48764551 .00001158 00000+0 71672-4 0 9998 2 29228 69.9296 139.2363 0002530 1.9609 358.1567 15.12951858 93246 CZ-4B R/B 1 29507U 06046C 26106.46869576 .00002898 00000+0 14685-3 0 9998 2 29507 97.5521 151.2701 0034294 134.8220 225.5810 15.17280959 65778 CZ-2C R/B 1 31114U 07010B 26106.55767218 .00000072 00000+0 52043-4 0 9990 2 31114 98.4022 217.9460 0059016 182.9663 177.1173 14.20260060985091 COSMO-SKYMED 1 1 31598U 07023A 26106.77232461 .00001115 00000+0 10262-3 0 9996 2 31598 97.8877 298.1180 0001298 85.9326 274.2043 14.96803552 20609 COSMOS 2428 1 31792U 07029A 26106.48081720 -.00000141 00000+0 -50177-4 0 9996 2 31792 70.9399 124.0237 0009468 236.5986 123.4230 14.12947843969435 SL-16 R/B 1 31793U 07029B 26106.69319720 -.00000087 00000+0 -20422-4 0 9993 2 31793 70.9730 92.4966 0002698 271.4805 261.7754 14.14841304970748 KORONAS-FOTON 1 33504U 09003A 26106.61641491 .00008171 00000+0 17595-3 0 9990 2 33504 82.4300 236.4129 0010622 24.6856 335.4898 15.44367918951590 CZ-2C R/B 1 37731U 11030B 26106.66364625 .00000528 00000+0 73042-4 0 9993 2 37731 97.8606 63.1869 0051303 225.6863 307.7402 14.81340802795719 H-2A R/B 1 38341U 12025E 26106.67052601 .00001793 00000+0 16545-3 0 9994 2 38341 98.4792 76.7811 0043998 186.4609 173.6048 14.95409091753890 SHIJIAN-16 (SJ-16) 1 39358U 13057A 26106.70533889 .00000515 00000+0 53036-4 0 9993 2 39358 74.9699 113.1142 0015776 14.8060 345.3587 14.92459167677173 SL-4 R/B 1 39679U 14021B 26106.46437770 .00008486 00000+0 18609-3 0 9997 2 39679 51.6053 152.8084 0093208 241.0876 118.0734 15.40483138662098 ALOS-2 1 39766U 14029A 26106.72850708 .00000033 00000+0 11251-4 0 9998 2 39766 97.9200 204.7730 0001857 90.8357 269.3068 14.79454053642497 YAOGAN-29 1 41038U 15069A 26106.71329061 .00000618 00000+0 82638-4 0 9996 2 41038 98.0088 135.2353 0001109 153.3464 206.7806 14.83036284561516 ASTRO-H (HITOMI) 1 41337U 16012A 26106.70612635 .00001736 00000+0 97820-4 0 9999 2 41337 30.9981 111.1686 0009533 353.4409 6.6103 15.10232595557985 HXMT (HUIYAN) 1 42758U 17034A 26106.61961488 .00002785 00000+0 14494-3 0 9995 2 42758 43.0131 165.7165 0030462 115.6593 244.7406 15.17935435488309 SAOCOM 1A 1 43641U 18076A 26106.70142494 .00000363 00000+0 52223-4 0 9995 2 43641 97.8901 294.3383 0001494 90.6852 269.4532 14.82148605406992 H-2A R/B 1 43682U 18084L 26106.56025663 .00010785 00000+0 24565-3 0 9997 2 43682 98.8673 332.0831 0023099 250.2177 109.6575 15.42919427411613 SAOCOM 1B 1 46265U 20059A 26106.66516088 .00000191 00000+0 30517-4 0 9994 2 46265 97.8887 293.3967 0001438 86.2305 273.9072 14.82159359304375 CSS (TIANHE) 1 48274U 21035A 26106.70363575 .00015180 00000+0 16937-3 0 9990 2 48274 41.4684 336.5354 0005879 221.3639 138.6756 15.62451456283556 COSMOS 2550 1 48865U 21056A 26106.59854913 -.00000197 00000+0 -14878-6 0 9996 2 48865 67.1399 286.2093 0008413 269.1949 90.8242 15.33827619269270 CZ-2C R/B 1 52794U 22058K 26106.53794662 .00025006 00000+0 33203-3 0 9997 2 52794 50.1857 123.1691 0040258 2.8425 357.2768 15.57059349216025 CZ-2C R/B 1 54039U 22132E 26106.51257222 .00027298 00000+0 27322-3 0 9998 2 54039 97.2935 111.0823 0013380 314.3809 45.6354 15.65428929196281 GSLV R/B 1 54149U 22138AN 26106.09002677 .00001261 00000+0 10664-3 0 9994 2 54149 87.3831 153.8347 0022185 22.5452 337.6749 14.96992574189524 XRISM 1 57800U 23137A 26106.21022949 .00003075 00000+0 16955-3 0 9993 2 57800 31.0028 40.8937 0007510 56.8343 303.3015 15.11920098143479 ACS3 1 59588U 24077B 26106.41922325 .00035283 00000+0 27281-1 0 9999 2 59588 97.1900 39.0573 0071608 358.5151 1.5791 13.91349674 99446 HTV-X1 1 66174U 25241A 26106.66760310 .00004921 00000+0 16514-3 0 9997 2 66174 51.6356 249.9296 0007549 319.8130 40.2293 15.32662694 26768 SZ-21 MODULE 1 66515U 25246C 26105.96599745 .00025807 00000+0 19750-3 0 9996 2 66515 41.4747 333.3787 0004470 276.9705 83.0629 15.71515739 23936